Tracking 28126 objects as of 2-Oct-2023
HD Live streaming from Space Station
objects crossing your sky now

STARLINK-6197

Track STARLINK-6197 now!
10-day predictions
STARLINK-6197 is classified as:


NORAD ID: 56767
Int'l Code: 2023-078A
Perigee: 577.1 km
Apogee: 581.3 km
Inclination: 70.0 °
Period: 96.1 minutes
Semi major axis: 6950 km
RCS: Unknown
Launch date: May 31, 2023
Source: United States (US)
Launch site: AIR FORCE WESTERN TEST RANGE (AFWTR)
Your satellite tracking list
Your tracking list is empty




NASA's NSSDC Master Catalog

Two Line Element Set (TLE):
1 56767U 23078A   23274.76472999  .00000487  00000-0  48580-4 0  9990
2 56767  69.9993  88.3286 0003069 269.7806  90.3001 14.98331604 19146
Source of the keplerian elements: AFSPC